Bloomington, IN

1:40 AM EDT on May 30, 2017 (GMT -0400)
Monroe County

Weather History for KBMG - January, 2010

Change the Weather History Date:

Monday, January 25, 2010

  Actual Average Record
Temperature  
Mean Temperature 33 °F 30 °F  
Max Temperature 38 °F 39 °F 57 °F (2017)
Min Temperature 27 °F 21 °F -2 °F (2008)
Degree Days  
Heating Degree Days 32 35  
Month to date heating degree days 958 897  
Since 1 July heating degree days 3026 2970  
Cooling Degree Days 0 0  
Month to date cooling degree days 0 0  
Year to date cooling degree days 0 0  
Moisture  
Dew Point 26 °F    
Average Humidity 81    
Maximum Humidity 92    
Minimum Humidity 69    
Precipitation  
Precipitation 0.01 in 0.08 in 0.44 in (2004)
Month to date precipitation 1.37 2.78  
Year to date precipitation 1.37 2.78  
Sea Level Pressure  
Sea Level Pressure 29.51 in    
Wind  
Wind Speed 12 mph (WSW)    
Max Wind Speed 23 mph    
Max Gust Speed 32 mph    
Visibility 4 miles    
Events Fog , Snow    
T = Trace of Precipitation, MM = Missing Value Source: NWS Daily Summary

Daily Weather History Graph

Daily Weather History Graph

Search for Another Location

Airport or City:

Trip Planner

Search our weather history database for the weather conditions in past years. The results will help you decide how hot, cold, wet, or windy it might be!

Date:

Astronomy

Jan. 25, 2010 Rise Set
Actual Time 7:58 AM EST 5:59 PM EST
Civil Twilight 7:30 AM EST 6:27 PM EST
Nautical Twilight 6:57 AM EST 7:00 PM EST
Astronomical Twilight 6:26 AM EST 7:32 PM EST
Moon 1:04 PM EST (1/25) 3:34 AM EST (1/25)
Length of Visible Light 10h 57m
Length of Day
10h 00m
Waxing Gibbous, 73% of the Moon is Illuminated
Jan 25
Waxing Gibbous
Jan 30
Full
Feb 5
Last Quarter
Feb 13
New
Feb 21
First Quarter

Hourly Weather History & Observations

Time (EST) Temp. Windchill Dew Point Humidity Pressure Visibility Wind Dir Wind Speed Gust Speed Precip Events Conditions
12:53 AM 37.0 °F 29.3 °F 33.1 °F 86% 29.41 in 10.0 mi WNW 11.5 mph 18.4 mph N/A   Overcast
1:53 AM 35.1 °F 27.9 °F 27.0 °F 72% 29.42 in 10.0 mi WNW 9.2 mph - N/A   Overcast
2:12 AM 33.8 °F 25.3 °F 26.6 °F 75% 29.41 in 10.0 mi WNW 11.5 mph 18.4 mph N/A   Overcast
2:53 AM 34.0 °F 28.8 °F 27.0 °F 75% 29.43 in 10.0 mi WNW 5.8 mph - N/A   Overcast
3:53 AM 33.1 °F 27.7 °F 26.1 °F 75% 29.42 in 10.0 mi WNW 5.8 mph - N/A   Overcast
4:22 AM 33.8 °F 29.6 °F 26.6 °F 75% 29.41 in 10.0 mi WSW 4.6 mph - N/A   Overcast
4:53 AM 32.0 °F 28.7 °F 27.0 °F 82% 29.42 in 10.0 mi SW 3.5 mph - N/A   Mostly Cloudy
5:19 AM 30.2 °F 26.7 °F 26.6 °F 86% 29.41 in 10.0 mi SSW 3.5 mph - N/A   Mostly Cloudy
5:53 AM 32.0 °F 23.6 °F 28.0 °F 85% 29.43 in 10.0 mi WSW 10.4 mph - N/A   Scattered Clouds
6:53 AM 32.0 °F 23.6 °F 26.1 °F 79% 29.43 in 10.0 mi WSW 10.4 mph - N/A   Mostly Cloudy
7:53 AM 30.9 °F 22.8 °F 25.0 °F 79% 29.44 in 10.0 mi WSW 9.2 mph - N/A   Mostly Cloudy
8:53 AM 32.0 °F 24.8 °F 25.0 °F 75% 29.45 in 10.0 mi SW 8.1 mph - 0.00 in   Overcast
9:53 AM 33.1 °F 24.4 °F 25.0 °F 72% 29.45 in 10.0 mi SW 11.5 mph - N/A   Overcast
10:53 AM 34.0 °F 24.6 °F 26.1 °F 73% 29.46 in 10.0 mi WSW 13.8 mph 24.2 mph 0.00 in Snow Light Snow
11:14 AM 33.8 °F 25.8 °F 26.6 °F 75% 29.44 in 8.0 mi West 10.4 mph 25.3 mph 0.00 in Snow Light Snow
11:47 AM 33.8 °F 24.8 °F 26.6 °F 75% 29.45 in 1.8 mi West 12.7 mph - 0.00 in Snow Light Snow
11:53 AM 32.0 °F 23.0 °F 28.0 °F 85% 29.46 in 3.0 mi West 11.5 mph - 0.00 in Snow Light Snow
12:00 PM 33.8 °F 27.0 °F 28.4 °F 81% 29.45 in 2.5 mi WSW 8.1 mph - 0.00 in Snow Light Snow
12:12 PM 33.8 °F 23.5 °F 28.4 °F 81% 29.45 in 1.8 mi WSW 16.1 mph 23.0 mph 0.00 in Snow Light Snow
12:19 PM 33.8 °F 24.3 °F 28.4 °F 81% 29.45 in 4.0 mi WSW 13.8 mph 23.0 mph 0.00 in Snow Light Snow
12:39 PM 33.8 °F 25.3 °F 28.4 °F 81% 29.44 in 1.8 mi WSW 11.5 mph 17.3 mph 0.00 in Snow Light Snow
12:50 PM 33.8 °F 23.5 °F 28.4 °F 81% 29.44 in 3.0 mi WSW 16.1 mph 32.2 mph 0.00 in Snow Light Snow
12:53 PM 33.1 °F 23.0 °F 27.0 °F 78% 29.45 in 6.0 mi WSW 15.0 mph 26.5 mph 0.00 in Snow Light Snow
1:19 PM 32.0 °F 20.8 °F 26.6 °F 80% 29.44 in 1.5 mi West 17.3 mph 32.2 mph 0.00 in Snow Light Snow
1:29 PM 32.0 °F 21.2 °F 26.6 °F 80% 29.44 in 2.0 mi WSW 16.1 mph 21.9 mph 0.00 in Snow Light Snow
1:36 PM 32.0 °F 24.2 °F 26.6 °F 80% 29.44 in 7.0 mi WSW 9.2 mph 20.7 mph 0.00 in Snow Light Snow
1:53 PM 33.1 °F 23.9 °F 26.1 °F 75% 29.45 in 9.0 mi WSW 12.7 mph 20.7 mph 0.00 in Snow Light Snow
2:19 PM 33.8 °F 23.5 °F 26.6 °F 75% 29.43 in 3.0 mi West 16.1 mph 23.0 mph 0.00 in Snow Light Snow
2:24 PM 32.0 °F 21.2 °F 26.6 °F 80% 29.44 in 1.8 mi WSW 16.1 mph 23.0 mph 0.00 in Snow Light Snow
2:35 PM 32.0 °F 22.5 °F 26.6 °F 80% 29.44 in 3.0 mi West 12.7 mph 23.0 mph 0.00 in Snow Light Snow
2:39 PM 32.0 °F 21.2 °F 26.6 °F 80% 29.44 in 1.8 mi WSW 16.1 mph 23.0 mph 0.00 in Snow Light Snow
2:53 PM 30.9 °F 22.2 °F 27.0 °F 85% 29.47 in 1.0 mi WSW 10.4 mph - 0.00 in Snow Light Snow
3:01 PM 30.2 °F 21.3 °F 28.4 °F 93% 29.45 in 0.8 mi West 10.4 mph 17.3 mph 0.00 in Snow Light Snow
3:09 PM 30.2 °F 19.3 °F 26.6 °F 86% 29.46 in 2.0 mi WSW 15.0 mph 20.7 mph 0.00 in Snow Light Snow
3:22 PM 30.2 °F 16.8 °F 26.6 °F 86% 29.47 in 0.8 mi West 23.0 mph 31.1 mph 0.01 in Snow Light Snow
3:28 PM 30.2 °F 19.3 °F 26.6 °F 86% 29.47 in 0.2 mi WSW 15.0 mph 31.1 mph 0.01 in Fog , Snow Snow
3:38 PM 30.2 °F 19.3 °F 26.6 °F 86% 29.48 in 0.5 mi West 15.0 mph 24.2 mph 0.01 in Fog , Snow Snow
3:42 PM 30.2 °F 20.2 °F 26.6 °F 86% 29.48 in 1.0 mi West 12.7 mph 24.2 mph 0.01 in Snow Light Snow
3:46 PM 30.2 °F 19.3 °F 26.6 °F 86% 29.48 in 2.0 mi West 15.0 mph 23.0 mph 0.01 in Snow Light Snow
3:53 PM 30.0 °F 18.7 °F 26.1 °F 85% 29.50 in 7.0 mi WSW 16.1 mph 24.2 mph 0.01 in Snow Light Snow
4:03 PM 30.2 °F 19.8 °F 26.6 °F 86% 29.49 in 1.8 mi WSW 13.8 mph 24.2 mph 0.00 in Snow Light Snow
4:38 PM 30.2 °F 19.8 °F 26.6 °F 86% 29.51 in 0.8 mi WSW 13.8 mph 21.9 mph 0.00 in Snow Light Snow
4:53 PM 30.0 °F 20.5 °F 28.0 °F 92% 29.53 in 1.0 mi WSW 11.5 mph 20.7 mph 0.00 in Snow Light Snow
5:03 PM 30.2 °F 19.8 °F 26.6 °F 86% 29.51 in 2.0 mi WSW 13.8 mph 20.7 mph 0.00 in Snow Light Snow
5:06 PM 30.2 °F 19.8 °F 26.6 °F 86% 29.52 in 1.5 mi WSW 13.8 mph 21.9 mph 0.00 in Snow Light Snow
5:53 PM 30.0 °F 21.1 °F 27.0 °F 88% 29.57 in 0.8 mi WSW 10.4 mph 21.9 mph 0.00 in Snow Light Snow
6:00 PM 30.2 °F 20.8 °F 26.6 °F 86% 29.55 in 0.8 mi WSW 11.5 mph 20.7 mph 0.00 in Snow Light Snow
6:05 PM 30.2 °F 19.8 °F 26.6 °F 86% 29.55 in 1.2 mi WSW 13.8 mph - 0.00 in Snow Light Snow
6:16 PM 30.2 °F 20.2 °F 26.6 °F 86% 29.55 in 1.5 mi West 12.7 mph 19.6 mph 0.00 in Snow Light Snow
6:35 PM 30.2 °F 19.8 °F 28.4 °F 93% 29.56 in 1.0 mi WSW 13.8 mph 19.6 mph 0.00 in Snow Light Snow
6:41 PM 30.2 °F 20.2 °F 26.6 °F 86% 29.57 in 2.0 mi WSW 12.7 mph 19.6 mph 0.00 in Snow Light Snow
6:51 PM 30.2 °F 20.2 °F 26.6 °F 86% 29.57 in 1.2 mi West 12.7 mph 21.9 mph 0.00 in Snow Light Snow
6:53 PM 30.0 °F 18.3 °F 27.0 °F 88% 29.59 in 1.0 mi WSW 17.3 mph 26.5 mph 0.00 in Snow Light Snow
7:06 PM 30.2 °F 20.2 °F 26.6 °F 86% 29.58 in 1.2 mi West 12.7 mph 20.7 mph 0.00 in Snow Light Snow
7:53 PM 30.0 °F 18.7 °F 27.0 °F 88% 29.62 in 2.0 mi West 16.1 mph 24.2 mph 0.00 in Snow Light Snow
8:04 PM 30.2 °F 20.8 °F 26.6 °F 86% 29.60 in 6.0 mi West 11.5 mph 24.2 mph 0.00 in Snow Light Snow
8:19 PM 30.2 °F 18.1 °F 24.8 °F 80% 29.61 in 5.0 mi West 18.4 mph 32.2 mph 0.00 in Snow Light Snow
8:31 PM 30.2 °F 18.5 °F 24.8 °F 80% 29.61 in 1.8 mi West 17.3 mph 31.1 mph 0.00 in Snow Light Snow
8:53 PM 28.9 °F 17.7 °F 26.1 °F 89% 29.65 in 1.5 mi West 15.0 mph 24.2 mph 0.00 in Snow Light Snow
9:53 PM 28.0 °F 18.1 °F 26.1 °F 92% 29.67 in 1.5 mi West 11.5 mph - 0.00 in Snow Light Snow
10:09 PM 28.4 °F 19.1 °F 24.8 °F 86% 29.65 in 1.5 mi West 10.4 mph 23.0 mph 0.00 in Snow Light Snow
10:27 PM 28.4 °F 17.0 °F 23.0 °F 80% 29.66 in 2.0 mi WNW 15.0 mph 23.0 mph 0.00 in Snow Light Snow
10:34 PM 26.6 °F 14.7 °F 24.8 °F 93% 29.66 in 1.0 mi West 15.0 mph 23.0 mph 0.00 in Snow Light Snow
10:53 PM 27.0 °F 16.7 °F 24.1 °F 89% 29.68 in 1.8 mi West 11.5 mph 19.6 mph 0.00 in Snow Light Snow
11:13 PM 26.6 °F 15.2 °F 24.8 °F 93% 29.67 in 2.5 mi West 13.8 mph 20.7 mph 0.00 in Snow Light Snow
11:20 PM 26.6 °F 16.2 °F 23.0 °F 86% 29.66 in 3.0 mi West 11.5 mph 23.0 mph 0.00 in Snow Light Snow
11:44 PM 26.6 °F 15.2 °F 21.2 °F 80% 29.67 in 7.0 mi West 13.8 mph 21.9 mph 0.00 in   Overcast
11:53 PM 27.0 °F 14.3 °F 23.0 °F 85% 29.69 in 8.0 mi West 17.3 mph 24.2 mph 0.00 in   Overcast